Regional Weather Roundup
Issued by NWS

Home | Current Version | Previous Version | Text Only | Print | Product List | Glossary On
Versions: 1 2 3 4 5 6 7 8 9 10 11 12 13 14 15 16 17 18 19 20 21 22 23 24 25 26 27 28 29 30 31 32 33 34 35 36 37 38 39 40 41 42 43 44 45 46 47 48 49 50
000
ASUS43 KMKX 240400
RWRWI

WISCONSIN REGIONAL WEATHER ROUNDUP
NATIONAL WEATHER SERVICE MILWAUKEE/SULLIVAN WI
1000 PM CST MON JAN 23 2017

NOTE: "FAIR" INDICATES FEW OR NO CLOUDS BELOW 12,000 FEET WITH NO
SIGNIFICANT WEATHER AND/OR OBSTRUCTIONS TO VISIBILITY.

WIZ001-002-006>008-014>016-023>028-240500-
NORTHWEST WISCONSIN

CITY           SKY/WX    TMP DP  RH WIND       PRES   REMARKS
SUPERIOR ARPT  CLOUDY    34  32  93 CALM      29.83R
ASHLAND        CLOUDY    34  33  96 SW3       29.82S
HAYWARD        CLOUDY    34  32  92 CALM      29.81S
SIREN          CLOUDY    32  32  99 W3        29.83S
CUMBERLAND     CLOUDY    32  30  93 CALM      29.81S
RICE LAKE      CLOUDY    33  32  95 CALM      29.83S
CHETEK         CLOUDY    32  32  98 CALM      29.82S
LADYSMITH      CLOUDY    33  32  97 CALM      29.83S FOG
EAU CLAIRE     CLOUDY    33  33 100 CALM      29.83R FOG
MENOMONIE        N/A    N/A N/A N/A MISG        N/A
NEW RICHMOND   CLOUDY    32  32 100 CALM      29.83S FOG
OSCEOLA        CLOUDY    33  33 100 W3        29.86R
$$

WIZ003>005-009-010-017-018-240500-
NORTH CENTRAL WISCONSIN

CITY           SKY/WX    TMP DP  RH WIND       PRES   REMARKS
MANITOWISH WTR CLOUDY    33  33 100 CALM      29.78R FOG
ARBOR VITAE    CLOUDY    37  36  96 NW3       29.78R
WOODRUFF       CLOUDY    37  36  96 NW3       29.78R
RHINELANDER    CLOUDY    35  35 100 CALM      29.78R FOG
EAGLE RIVER    FOG       33  33 100 E3        29.76F VSB 1
LAND O LAKES   FOG       34  34 100 CALM      29.78S VSB 1
PHILLIPS       CLOUDY    32  32 100 W3        29.79S
TOMAHAWK       CLOUDY    33  32  96 CALM      29.79S
MEDFORD        CLOUDY    32  32  99 NW3       29.79R FOG
MERRILL        CLOUDY    34  34 100 CALM        N/A  FOG
$$

WIZ029-030-035-036-043>047-240500-
CENTRAL WISCONSIN

CITY           SKY/WX    TMP DP  RH WIND       PRES   REMARKS
WAUSAU         FOG       34  34 100 NW3       29.78S VSB 1/2
MOSINEE        FOG       34  34 100 CALM      29.80S VSB 1/4
MARSHFIELD     CLOUDY    33  32  96 NW7       29.79S FOG     WCI  27
STEVENS POINT  FOG       33  33 100 CALM      29.81R VSB 3/4
WAUPACA        CLOUDY    38  35  90 CALM      29.81S
WAUTOMA        CLOUDY    35  34  96 NW3       29.81  FOG
WISC RAPIDS    CLOUDY    34  34 100 NW3       29.81S
CAMP DOUGLAS   CLOUDY    32  32 100 NW5       29.82R WCI  27
$$

WIZ011>013-019>022-031-037>040-048>050-240500-
NORTHEAST WISCONSIN

CITY           SKY/WX    TMP DP  RH WIND       PRES   REMARKS
ANTIGO         CLOUDY    33  33 100 CALM      29.78S
SHAWANO        CLOUDY    37  34  88 CALM      29.80S
OCONTO         CLOUDY    34  34  99 CALM      29.80S VSB 1/2
STURGEON BAY   FOG       34  34 100 CALM      29.80S VSB 1/2
GREEN BAY      CLOUDY    36  36 100 W3        29.80S
MANITOWOC      CLOUDY    36  34  93 CALM      29.81S
APPLETON       MOCLDY    36  36 100 NW7       29.78S WCI  30
CLINTONVILLE   CLOUDY    36  34  93 NW3       29.80S
OSHKOSH        CLOUDY    35  33  92 W6        29.79F WCI  30
$$

WIZ032>034-041-042-053>061-240500-
SOUTHWEST WISCONSIN

CITY           SKY/WX    TMP DP  RH WIND       PRES   REMARKS
LA CROSSE      CLOUDY    35  33  92 N3        29.85R
SPARTA         CLOUDY    32  32 100 CALM      29.84S FOG
VIROQUA        CLOUDY    33  33 100 CALM      29.81S
BOSCOBEL       CLOUDY    36  32  85 CALM      29.85R
PRAIRIE DU CHI CLOUDY    33  31  92 CALM      29.85R
PLATTEVILLE    CLOUDY    35  33  93 CALM      29.84R
$$

WIZ056-057-062-063-064-067-068-240500-
SOUTH CENTRAL WISCONSIN

CITY           SKY/WX    TMP DP  RH WIND       PRES   REMARKS
REEDSBURG      CLOUDY    34  33  96 NW3       29.82R
BARABOO/DELLS  CLOUDY    34  32  94 NW3       29.81S
LONE ROCK      NOT AVBL
MINERAL POINT  CLOUDY    36  34  93 CALM      29.82R
MADISON        CLOUDY    36  32  85 NW3       29.83R
MIDDLETON      CLOUDY    36  36 100 NW6       29.83R WCI  31
WATERTOWN      CLOUDY    35  35 100 NW3       29.81S FOG
MONROE         CLOUDY    36  32  87 CALM      29.81S
JANESVILLE     CLOUDY    37  36  93 NW3       29.82R
$$

WIZ051-052-058>065-066-070>072-240500-
SOUTHEAST WISCONSIN

CITY           SKY/WX    TMP DP  RH WIND       PRES   REMARKS
MILWAUKEE      CLOUDY    39  34  82 NW7       29.81R WCI  34
WAUKESHA       CLOUDY    34  34 100 NW6       29.81S FOG     WCI  29
MILWAUKEE/TIMM CLOUDY    36  32  87 NW5       29.81S WCI  32
RACINE         CLOUDY    38  34  85 NW5       29.82R WCI  34
KENOSHA        CLOUDY    38  34  85 N3        29.81S
FOND DU LAC    CLOUDY    35  32  88 NW3       29.80S
SHEBOYGAN      CLOUDY    35  33  92 CALM      29.80S
WEST BEND      CLOUDY    36  34  93 NW7       29.80S WCI  30
JUNEAU         CLOUDY    35  34  97 CALM      29.82S FOG
$$

LSZ147-162-240500-
LAKE SUPERIOR

STATION/POSITION TIME  TEMP    WIND        PRES    WAVE
                       AIR SEA DIR/SP/G            HT/PER
                 (UTC) (F)     (DEG/KT/KT) (MB)    (FT/S)
DEVILS ISLAND    0300   34     220/  7/  8 1009.7S
PORT WING        0330   35     180/  2/  3 1010.2R
SAXON HARBOR     0340   35     200/  3/  5 1009.5S
$$

LMZ867-665-643>646-240500-
LAKE MICHIGAN

STATION/POSITION TIME  TEMP    WIND        PRES    WAVE
                       AIR SEA DIR/SP/G            HT/PER
                 (UTC) (F)     (DEG/KT/KT) (MB)    (FT/S)
NORTHPORT PIER   0340   33      CALM  /  3 1009.1S
SISTER BAY       0250   34        CALM       N/A
KEWAUNEE LAKESHO 0330   36     290/  2/  4 1008.7R
SHEBOYGAN LAKESH 0300   37     300/  5/  6 1009.4R
PORT WASHINGTON  0340   37     300/  3/  5 1010.5R
KENOSHA   LAKESH 0300   38     350/  5/  6 1009.5
$$

TC  - TEMPERATURE IN CELSIUS
VSB - VISIBILITY IN STATUTE MILES
WCI - WIND CHILL INDEX
HX  - HEAT INDEX





USA.gov is the U.S. government's official web portal to all federal, state and local government web resources and services.